STARLINK-2639, 48436

Orbit data source: Space-Track

STARLINK-2639, 48436 is a payload satellite owned by SpaceX/Seattle (US) in LEO that was launched on Sun, 09 May 2021 UTC via an FALCON 9 launch vehicle from the Air Force Eastern Test Range (AFETR). Payload-class satellites include a variety of spacecraft equipped with specific instruments for various scientific and technological missions. These include communications satellites like Starlink; space stations such as the ISS; scientific satellites like the Hubble; Earth observation satellites from companies like Planet Labs, Umbra, and HawkEye 360; GPS; miniature CubeSats for education and research; and military/defense satellites.

Loading next visibility...
Identifier
48436, 2021-040J
Orbit
LEO
Country
Flag of USUS
Related business
Manufacturer
SpaceX/Seattle
Mission
Operational Commercial Communications
Bus & Motor
STARLINK, Unknown motor
Mass
260 kg wet, ~248 kg dry
Launch date (UTC)
2021-05-09 (5 years ago)
Launch vehicle
FALCON 9
Launch site
Air Force Eastern Test Range (AFETR)
Object type
Payload
Rocket body
Debris
Shape & HBR
Box + 1 Pan, 10.1 m
Radar Cross Section
13.562 m², Large (>1 m²)

Expand to show TLE details & history
Last TLE update: 2 days ago

TLE from 2 days ago
0 STARLINK-2639
1 48436U 21040J   26171.40855137  .00000840  00000-0  38818-4 0  9996
2 48436  53.1598  60.2801 0001240  87.1445 272.9698 15.31701916282415
Epoch: 2026-06-20T09:48Z
TLE epoch observation values (Epoch: 2026-06-20T09:48:18.838Z)
Latitude
-0.00004°
Longitude
4.57798°
Altitude
471.591 km
Speed
7.631 km/s
True Right ascension
04h 01m 07s
True Declination
0° 00' 00"
Sunlit
Object was in daylight at epoch
Visualization orbit readout
Latitude
Unknown
Longitude
Unknown
Altitude
Unknown
Speed
Unknown
Apparent Right ascension
Unknown
Apparent Declination
Unknown
Sunlit
N/A
Visualization observer readout
Local Sidereal Time
21:24:08
Azimuth
Unknown
Elevation
Unknown
Doppler factor
Unknown
Orbital elements
Apogee altitude
471.84 km
Perigee altitude
470.142 km
Semi-major axis
6,849.128 km
Eccentricity
0.00012
Inclination
53.1598°
RAAN
60.2801°
Arg. of periapsis
87.1445°
True anomaly
272.95561°
Mean anomaly
272.9698°
Eccentric anomaly
272.9627°
Mean motion
3.82904 °/min
Orbital period
94.02 mins
BSTAR
0.000038818
Loading maneuver chart data...
Computing Atmospheric mass density...

Documentation

Showing up to 5 results
|